When you browse on this site, cookies collect data to enhance your experience and personalize the content and advertising you see.
Visit our Privacy Policy to learn more. By continuing to use the site, you agree to this use of cookies and data.
  • In Lithuania
  • List of Countries
  • For 7 days
  • Water Temperature
  • Satellite Maps
  • Weather Map
  • Weather Widgets
  • user-avatar
    Login

    Hourly Weather Edmundston

    Today, 21 May, Tuesday

    Time Temperature Precipitation Wind Pressure Humidity
    00:00 +8°C° 0 mm 3 mps 699 mmHg 63%
    01:00 +7°C° 0 mm 3 mps 699 mmHg 65%
    02:00 +7°C° 0 mm 3 mps 699 mmHg 66%
    03:00 +5°C° 0 mm 3 mps 699 mmHg 67%
    04:00 +5°C° 0 mm 3 mps 699 mmHg 68%
    05:00 +7°C° 0 mm 4 mps 699 mmHg 62%
    06:00 +10°C° 0 mm 4 mps 700 mmHg 57%
    07:00 +12°C° 0 mm 5 mps 700 mmHg 51%
    08:00 +14°C° 0 mm 6 mps 700 mmHg 48%
    09:00 +15°C° 0 mm 6 mps 700 mmHg 44%
    10:00 +16°C° 0 mm 6 mps 700 mmHg 41%
    11:00 +17°C° 0 mm 6 mps 701 mmHg 41%
    12:00 +17°C° 0 mm 6 mps 701 mmHg 40%
    13:00 +17°C° 0 mm 6 mps 701 mmHg 40%
    14:00 +17°C° 0 mm 5 mps 701 mmHg 43%
    15:00 +17°C° 0 mm 4 mps 701 mmHg 46%
    16:00 +17°C° 0 mm 4 mps 701 mmHg 50%
    17:00 +16°C° 0 mm 3 mps 701 mmHg 52%
    18:00 +16°C° 0 mm 3 mps 701 mmHg 55%
    19:00 +15°C° 0 mm 2 mps 702 mmHg 57%
    20:00 +14°C° 0 mm 2 mps 702 mmHg 57%
    21:00 +14°C° 0 mm 2 mps 702 mmHg 56%
    22:00 +13°C° 0 mm 2 mps 702 mmHg 56%
    23:00 +12°C° 0 mm 2 mps 702 mmHg 59%

    Tomorrow, 22 May, Wednesday

    Time Temperature Precipitation Wind Pressure Humidity
    00:00 +12°C° 0 mm 1 mps 703 mmHg 63%
    01:00 +11°C° 0 mm 1 mps 703 mmHg 66%
    02:00 +10°C° 0 mm 1 mps 703 mmHg 68%
    03:00 +9°C° 0 mm 0 mps 703 mmHg 71%
    04:00 +9°C° 0 mm 0 mps 703 mmHg 73%
    05:00 +10°C° 0 mm 0 mps 703 mmHg 68%
    06:00 +13°C° 0 mm 1 mps 703 mmHg 63%
    07:00 +15°C° 0 mm 1 mps 704 mmHg 58%
    08:00 +16°C° 0 mm 2 mps 704 mmHg 52%
    09:00 +18°C° 0 mm 2 mps 704 mmHg 46%
    10:00 +19°C° 0 mm 2 mps 704 mmHg 41%
    11:00 +19°C° 0 mm 2 mps 704 mmHg 41%
    12:00 +19°C° 0 mm 2 mps 703 mmHg 41%
    13:00 +20°C° 0 mm 1 mps 703 mmHg 41%
    14:00 +20°C° 0 mm 1 mps 703 mmHg 40%
    15:00 +20°C° 0 mm 2 mps 703 mmHg 39%
    16:00 +20°C° 0 mm 2 mps 703 mmHg 39%
    17:00 +19°C° 0 mm 2 mps 703 mmHg 43%
    18:00 +18°C° 0 mm 1 mps 703 mmHg 48%
    19:00 +16°C° 0 mm 1 mps 703 mmHg 52%
    20:00 +15°C° 0 mm 1 mps 702 mmHg 53%
    21:00 +15°C° 0 mm 2 mps 702 mmHg 54%
    22:00 +14°C° 0 mm 2 mps 702 mmHg 55%
    23:00 +13°C° 0 mm 2 mps 702 mmHg 56%

    Day after tomorrow, 23 May, Thursday

    Time Temperature Precipitation Wind Pressure Humidity
    00:00 +13°C° 0 mm 2 mps 702 mmHg 57%
    01:00 +13°C° 0 mm 2 mps 702 mmHg 58%
    02:00 +12°C° 0 mm 1 mps 702 mmHg 60%
    03:00 +12°C° 0 mm 1 mps 702 mmHg 62%
    04:00 +11°C° 0 mm 1 mps 701 mmHg 64%
    05:00 +13°C° 0 mm 1 mps 702 mmHg 61%
    06:00 +14°C° 0 mm 1 mps 702 mmHg 57%
    07:00 +16°C° 0 mm 1 mps 702 mmHg 53%
    08:00 +17°C° 0 mm 2 mps 702 mmHg 49%
    09:00 +19°C° 0 mm 2 mps 701 mmHg 44%
    10:00 +20°C° 0 mm 2 mps 701 mmHg 40%
    11:00 +20°C° 0 mm 3 mps 701 mmHg 39%
    12:00 +21°C° 0 mm 3 mps 701 mmHg 38%
    13:00 +22°C° 0 mm 3 mps 700 mmHg 37%
    14:00 +21°C° 0 mm 3 mps 700 mmHg 39%
    15:00 +21°C° 0 mm 2 mps 699 mmHg 41%
    16:00 +21°C° 0 mm 2 mps 699 mmHg 43%
    17:00 +20°C° 0 mm 2 mps 699 mmHg 48%
    18:00 +19°C° 0 mm 1 mps 698 mmHg 53%
    19:00 +18°C° 0 mm 1 mps 698 mmHg 59%
    20:00 +16°C° 0 mm 1 mps 697 mmHg 62%
    21:00 +15°C° 0 mm 1 mps 697 mmHg 65%
    22:00 +14°C° 0 mm 1 mps 697 mmHg 67%
    23:00 +14°C° 0 mm 1 mps 697 mmHg 70%

    24 May, Friday

    Time Temperature Precipitation Wind Pressure Humidity
    00:00 +13°C° 0 mm 1 mps 696 mmHg 73%
    01:00 +12°C° 0 mm 1 mps 696 mmHg 75%
    02:00 +12°C° 0.1 mm 1 mps 696 mmHg 78%
    03:00 +11°C° 0.1 mm 1 mps 696 mmHg 81%
    04:00 +11°C° 0.1 mm 1 mps 696 mmHg 84%
    05:00 +12°C° 0 mm 1 mps 696 mmHg 80%
    06:00 +14°C° 0 mm 2 mps 697 mmHg 76%
    07:00 +15°C° 0 mm 2 mps 697 mmHg 72%
    08:00 +16°C° 0.6 mm 3 mps 697 mmHg 70%
    09:00 +17°C° 0.6 mm 4 mps 698 mmHg 67%
    10:00 +16°C° 0.6 mm 5 mps 698 mmHg 65%
    11:00 +16°C° 0.6 mm 5 mps 698 mmHg 65%
    12:00 +16°C° 0.6 mm 5 mps 698 mmHg 66%
    13:00 +16°C° 0.6 mm 5 mps 698 mmHg 66%
    14:00 +16°C° 0.2 mm 5 mps 698 mmHg 64%
    15:00 +17°C° 0.2 mm 4 mps 698 mmHg 62%
    16:00 +18°C° 0.2 mm 4 mps 699 mmHg 59%
    17:00 +17°C° 0.1 mm 3 mps 699 mmHg 63%
    18:00 +16°C° 0.1 mm 3 mps 699 mmHg 67%
    19:00 +15°C° 0.1 mm 2 mps 699 mmHg 71%
    20:00 +14°C° 0 mm 1 mps 700 mmHg 73%
    21:00 +13°C° 0 mm 1 mps 700 mmHg 76%
    22:00 +10°C° 0 mm 0 mps 700 mmHg 78%
    23:00 +11°C° 0 mm 1 mps 700 mmHg 79%

    25 May, Saturday

    Time Temperature Precipitation Wind Pressure Humidity
    00:00 +11°C° 0 mm 1 mps 701 mmHg 81%
    01:00 +9°C° 0 mm 2 mps 701 mmHg 82%
    02:00 +9°C° 0 mm 2 mps 701 mmHg 82%
    03:00 +8°C° 0 mm 2 mps 701 mmHg 83%
    04:00 +8°C° 0 mm 2 mps 702 mmHg 83%
    05:00 +9°C° 0 mm 3 mps 702 mmHg 78%
    06:00 +10°C° 0 mm 3 mps 702 mmHg 73%
    07:00 +11°C° 0 mm 3 mps 702 mmHg 67%
    08:00 +12°C° 0 mm 4 mps 703 mmHg 59%
    09:00 +13°C° 0 mm 4 mps 703 mmHg 50%
    10:00 +15°C° 0 mm 4 mps 703 mmHg 42%
    11:00 +15°C° 0 mm 4 mps 703 mmHg 39%
    12:00 +15°C° 0 mm 4 mps 704 mmHg 36%
    13:00 +17°C° 0 mm 4 mps 704 mmHg 33%
    14:00 +15°C° 0 mm 4 mps 704 mmHg 32%
    15:00 +15°C° 0 mm 4 mps 704 mmHg 31%
    16:00 +15°C° 0 mm 4 mps 704 mmHg 30%
    17:00 +14°C° 0 mm 3 mps 705 mmHg 34%
    18:00 +12°C° 0 mm 3 mps 705 mmHg 38%
    19:00 +12°C° 0 mm 2 mps 705 mmHg 41%
    20:00 +10°C° 0 mm 2 mps 705 mmHg 42%
    21:00 +10°C° 0 mm 1 mps 706 mmHg 43%
    22:00 +8°C° 0 mm 1 mps 706 mmHg 44%
    23:00 +8°C° 0 mm 1 mps 707 mmHg 47%

    26 May, Sunday

    Time Temperature Precipitation Wind Pressure Humidity
    00:00 +6°C° 0 mm 2 mps 707 mmHg 50%
    01:00 +6°C° 0 mm 2 mps 707 mmHg 52%
    02:00 +6°C° 0 mm 2 mps 707 mmHg 55%
    03:00 +5°C° 0 mm 2 mps 707 mmHg 58%
    04:00 +4°C° 0 mm 3 mps 707 mmHg 61%
    05:00 +7°C° 0 mm 3 mps 707 mmHg 57%
    06:00 +8°C° 0 mm 4 mps 707 mmHg 52%
    07:00 +11°C° 0 mm 4 mps 707 mmHg 48%
    08:00 +12°C° 0 mm 4 mps 707 mmHg 45%
    09:00 +14°C° 0 mm 5 mps 706 mmHg 42%
    10:00 +15°C° 0 mm 5 mps 706 mmHg 40%
    11:00 +16°C° 0 mm 5 mps 706 mmHg 40%
    12:00 +17°C° 0 mm 5 mps 705 mmHg 40%
    13:00 +19°C° 0 mm 5 mps 705 mmHg 40%
    14:00 +19°C° 0 mm 5 mps 704 mmHg 41%
    15:00 +19°C° 0 mm 5 mps 703 mmHg 42%
    16:00 +19°C° 0 mm 5 mps 703 mmHg 42%
    17:00 +17°C° 0 mm 5 mps 702 mmHg 48%
    18:00 +15°C° 0 mm 4 mps 702 mmHg 53%
    19:00 +14°C° 0 mm 4 mps 701 mmHg 58%
    20:00 +13°C° 0 mm 4 mps 701 mmHg 59%
    21:00 +12°C° 0 mm 4 mps 700 mmHg 60%
    22:00 +11°C° 0 mm 4 mps 700 mmHg 61%
    23:00 +10°C° 0 mm 4 mps 699 mmHg 64%
    Show more